Time,TemperatureF,DewpointF,PressureIn,WindDirection,WindDirectionDegrees,WindSpeedMPH,WindSpeedGustMPH,Humidity,HourlyPrecipIn,Conditions,Clouds,dailyrainin,SolarRadiationWatts/m^2,SoftwareType,DateUTC
2013-11-05 00:00:00,41.0,22.0,30.02,NNE,17,4.0,-999.0,45,0.00,,,-99.99,-1.600000,,2013-11-05 08:00:00,
2013-11-05 00:42:00,41.0,22.0,30.02,NNE,17,4.0,-999.0,45,0.00,,,-99.99,-1.600000,,2013-11-05 08:42:00,
2013-11-05 00:52:00,41.0,22.0,30.02,NNE,17,4.0,-999.0,45,0.00,,,-99.99,-1.600000,,2013-11-05 08:52:00,
2013-11-05 01:00:00,43.0,21.0,30.01,NNE,12,3.0,-999.0,41,0.00,,,-99.99,-2.500000,,2013-11-05 09:00:00,
2013-11-05 01:43:00,43.0,21.0,30.01,NNE,12,3.0,-999.0,41,0.00,,,-99.99,-2.500000,,2013-11-05 09:43:00,
2013-11-05 01:53:00,43.0,21.0,30.01,NNE,12,3.0,-999.0,41,0.00,,,-99.99,-2.500000,,2013-11-05 09:53:00,
2013-11-05 02:00:00,41.0,22.0,30.02,NE,38,2.0,-999.0,45,0.00,,,-99.99,-3.400000,,2013-11-05 10:00:00,
2013-11-05 02:43:00,41.0,22.0,30.02,NE,38,2.0,-999.0,45,0.00,,,-99.99,-3.400000,,2013-11-05 10:43:00,
2013-11-05 02:53:00,41.0,22.0,30.02,NE,38,2.0,-999.0,45,0.00,,,-99.99,-3.400000,,2013-11-05 10:53:00,
2013-11-05 03:00:00,41.0,22.0,30.03,North,4,8.0,-999.0,46,0.00,,,-99.99,-2.800000,,2013-11-05 11:00:00,
2013-11-05 03:42:00,41.0,22.0,30.03,North,4,8.0,-999.0,46,0.00,,,-99.99,-2.800000,,2013-11-05 11:42:00,
2013-11-05 03:52:00,41.0,22.0,30.03,North,4,8.0,-999.0,46,0.00,,,-99.99,-2.800000,,2013-11-05 11:52:00,
2013-11-05 04:00:00,41.0,22.0,30.04,WNW,283,1.0,-999.0,47,0.00,,,-99.99,-3.200000,,2013-11-05 12:00:00,
2013-11-05 04:42:00,41.0,22.0,30.04,WNW,283,1.0,-999.0,47,0.00,,,-99.99,-3.200000,,2013-11-05 12:42:00,
2013-11-05 04:52:00,41.0,22.0,30.04,WNW,283,1.0,-999.0,47,0.00,,,-99.99,-3.200000,,2013-11-05 12:52:00,
2013-11-05 05:00:00,41.0,21.0,30.05,North,11,6.0,-999.0,43,0.00,,,-99.99,-2.300000,,2013-11-05 13:00:00,
2013-11-05 05:42:00,41.0,21.0,30.05,North,11,6.0,-999.0,43,0.00,,,-99.99,-2.300000,,2013-11-05 13:42:00,
2013-11-05 05:52:00,41.0,21.0,30.05,North,11,6.0,-999.0,43,0.00,,,-99.99,-2.300000,,2013-11-05 13:52:00,
2013-11-05 06:00:00,38.0,23.0,30.07,WSW,237,0.0,-999.0,52,0.00,,,-99.99,-3.200000,,2013-11-05 14:00:00,
2013-11-05 06:42:00,38.0,23.0,30.07,WSW,237,0.0,-999.0,52,0.00,,,-99.99,-3.200000,,2013-11-05 14:42:00,
2013-11-05 06:52:00,38.0,23.0,30.07,WSW,237,0.0,-999.0,52,0.00,,,-99.99,-3.200000,,2013-11-05 14:52:00,
2013-11-05 07:00:00,37.0,23.0,30.09,SW,220,1.0,-999.0,55,0.00,,,-99.99,1.300000,,2013-11-05 15:00:00,
2013-11-05 07:43:00,37.0,23.0,30.09,SW,220,1.0,-999.0,55,0.00,,,-99.99,1.300000,,2013-11-05 15:43:00,
2013-11-05 07:53:00,37.0,23.0,30.09,SW,220,1.0,-999.0,55,0.00,,,-99.99,1.300000,,2013-11-05 15:53:00,
2013-11-05 08:43:00,40.0,23.0,30.10,NE,48,2.0,-999.0,51,0.00,,,-99.99,22.100000,,2013-11-05 16:43:00,
2013-11-05 09:00:00,53.0,25.0,30.12,NNE,29,4.0,-999.0,33,0.00,,,-99.99,265.299988,,2013-11-05 17:00:00,
2013-11-05 09:42:00,53.0,25.0,30.12,NNE,29,4.0,-999.0,33,0.00,,,-99.99,265.299988,,2013-11-05 17:42:00,
2013-11-05 09:52:00,53.0,25.0,30.12,NNE,29,4.0,-999.0,33,0.00,,,-99.99,265.299988,,2013-11-05 17:52:00,
2013-11-05 10:00:00,63.0,25.0,30.13,NNE,16,3.0,-999.0,23,0.00,,,-99.99,445.799988,,2013-11-05 18:00:00,
2013-11-05 10:42:00,63.0,25.0,30.13,NNE,16,3.0,-999.0,23,0.00,,,-99.99,445.799988,,2013-11-05 18:42:00,
2013-11-05 10:52:00,63.0,25.0,30.13,NNE,16,3.0,-999.0,23,0.00,,,-99.99,445.799988,,2013-11-05 18:52:00,
2013-11-05 11:00:00,64.0,27.0,30.14,SW,227,2.0,-999.0,24,0.00,,,-99.99,547.900024,,2013-11-05 19:00:00,
2013-11-05 11:42:00,64.0,27.0,30.14,SW,227,2.0,-999.0,24,0.00,,,-99.99,547.900024,,2013-11-05 19:42:00,
2013-11-05 11:52:00,64.0,27.0,30.14,SW,227,2.0,-999.0,24,0.00,,,-99.99,547.900024,,2013-11-05 19:52:00,
2013-11-05 12:00:00,66.0,26.0,30.11,NW,313,3.0,-999.0,21,0.00,,,-99.99,591.900024,,2013-11-05 20:00:00,
2013-11-05 12:43:00,66.0,26.0,30.11,NW,313,3.0,-999.0,21,0.00,,,-99.99,591.900024,,2013-11-05 20:43:00,
2013-11-05 12:53:00,66.0,26.0,30.11,NW,313,3.0,-999.0,21,0.00,,,-99.99,591.900024,,2013-11-05 20:53:00,
2013-11-05 13:00:00,65.0,29.0,30.11,SW,218,3.0,-999.0,25,0.00,,,-99.99,547.000000,,2013-11-05 21:00:00,
2013-11-05 13:44:00,65.0,29.0,30.11,SW,218,3.0,-999.0,25,0.00,,,-99.99,547.000000,,2013-11-05 21:44:00,
2013-11-05 13:54:00,65.0,29.0,30.11,SW,218,3.0,-999.0,25,0.00,,,-99.99,547.000000,,2013-11-05 21:54:00,
2013-11-05 14:00:00,64.0,29.0,30.10,ESE,112,1.0,-999.0,26,0.00,,,-99.99,438.399994,,2013-11-05 22:00:00,
2013-11-05 14:43:00,64.0,29.0,30.10,ESE,112,1.0,-999.0,26,0.00,,,-99.99,438.399994,,2013-11-05 22:43:00,
2013-11-05 14:53:00,64.0,29.0,30.10,ESE,112,1.0,-999.0,26,0.00,,,-99.99,438.399994,,2013-11-05 22:53:00,
2013-11-05 15:00:00,63.0,30.0,30.10,ENE,69,1.0,-999.0,28,0.00,,,-99.99,120.900002,,2013-11-05 23:00:00,
2013-11-05 15:42:00,63.0,30.0,30.10,ENE,69,1.0,-999.0,28,0.00,,,-99.99,120.900002,,2013-11-05 23:42:00,
2013-11-05 15:53:00,63.0,30.0,30.10,ENE,69,1.0,-999.0,28,0.00,,,-99.99,120.900002,,2013-11-05 23:53:00,
2013-11-05 16:00:00,61.0,29.0,30.11,SW,216,1.0,-999.0,29,0.00,,,-99.99,39.500000,,2013-11-06 00:00:00,
2013-11-05 16:42:00,61.0,29.0,30.11,SW,216,1.0,-999.0,29,0.00,,,-99.99,39.500000,,2013-11-06 00:42:00,
2013-11-05 16:52:00,61.0,29.0,30.11,SW,216,1.0,-999.0,29,0.00,,,-99.99,39.500000,,2013-11-06 00:52:00,
2013-11-05 17:00:00,54.0,30.0,30.12,SSE,148,1.0,-999.0,40,0.00,,,-99.99,14.400000,,2013-11-06 01:00:00,
2013-11-05 17:42:00,54.0,30.0,30.12,SSE,148,1.0,-999.0,40,0.00,,,-99.99,14.400000,,2013-11-06 01:42:00,
2013-11-05 17:52:00,54.0,30.0,30.12,SSE,148,1.0,-999.0,40,0.00,,,-99.99,14.400000,,2013-11-06 01:52:00,
2013-11-05 18:00:00,48.0,30.0,30.14,SSW,205,0.0,-999.0,50,0.00,,,-99.99,-2.100000,,2013-11-06 02:00:00,
2013-11-05 18:42:00,48.0,30.0,30.14,SSW,205,0.0,-999.0,50,0.00,,,-99.99,-2.100000,,2013-11-06 02:42:00,
2013-11-05 18:52:00,48.0,30.0,30.14,SSW,205,0.0,-999.0,50,0.00,,,-99.99,-2.100000,,2013-11-06 02:52:00,
2013-11-05 20:00:00,42.0,31.0,30.16,NNE,20,0.0,-999.0,63,0.00,,,-99.99,-1.300000,,2013-11-06 04:00:00,
2013-11-05 20:53:00,42.0,31.0,30.16,NNE,20,0.0,-999.0,63,0.00,,,-99.99,-1.300000,,2013-11-06 04:53:00,
2013-11-05 21:00:00,45.0,31.0,30.18,West,261,1.0,-999.0,58,0.00,,,-99.99,-0.500000,,2013-11-06 05:00:00,
2013-11-05 21:44:00,45.0,31.0,30.18,West,261,1.0,-999.0,58,0.00,,,-99.99,-0.500000,,2013-11-06 05:44:00,
2013-11-05 21:53:00,45.0,31.0,30.18,West,261,1.0,-999.0,58,0.00,,,-99.99,-0.500000,,2013-11-06 05:53:00,